GEFSMA_500_meanwind_042.txt.gz
Wind_Speed
11 11 10 9 9 8 8 8 8 8 8 8 9 10 11 12 14 15 15 16 16 17 17 16 16 15 15 14 13 13 13 12 13 14 16 18 19 19 19 18 17 16 14
13 13 12 12 11 10 10 10 10 9 10 10 10 11 12 13 14 15 16 17 17 18 19 19 19 19 18 18 17 16 15 14 14 14 16 17 19 20 21 20 19 18 16
15 15 14 14 14 13 13 13 12 12 11 11 11 12 12 13 14 15 16 17 18 19 19 20 20 21 21 21 20 20 18 17 16 16 16 17 19 20 21 22 21 20 18
17 16 16 16 16 16 15 16 15 14 14 14 13 13 14 14 15 16 16 17 18 19 20 21 21 22 22 23 23 22 22 21 20 18 18 18 20 20 21 23 23 22 20
19 18 18 18 18 17 17 17 17 17 16 16 16 16 16 16 16 17 18 18 19 19 20 21 21 22 22 23 23 23 23 23 22 21 20 19 20 21 22 23 24 23 22
20 20 19 19 19 19 19 19 19 18 19 19 18 18 18 18 18 18 19 19 20 20 20 21 22 22 22 22 23 23 24 24 23 23 22 21 21 22 23 23 24 23 23
22 22 21 21 21 21 21 20 21 21 21 21 21 20 20 20 20 20 20 21 21 21 22 22 22 22 23 23 23 23 24 24 23 23 23 23 22 22 23 24 24 24 23
24 24 24 22 22 22 21 21 22 22 22 22 22 23 23 23 23 22 22 22 22 22 22 23 23 23 23 23 23 24 24 24 24 24 24 24 24 23 23 24 25 25 24
26 26 25 24 23 22 22 23 23 23 23 23 23 23 24 25 24 23 24 24 24 24 24 24 23 23 23 23 23 24 24 24 24 24 24 24 24 24 25 25 25 25 25
26 25 24 24 23 23 23 23 23 23 23 23 24 25 25 26 26 25 25 26 25 25 25 25 24 24 23 23 23 24 25 25 25 24 24 24 25 25 25 26 26 26 26
27 25 24 24 23 23 22 22 22 22 23 24 24 25 26 26 26 26 26 25 25 26 25 26 26 25 24 24 24 24 25 25 26 25 25 24 24 25 26 27 27 27 26
26 25 23 23 23 21 21 22 22 23 23 23 24 24 25 25 26 25 25 25 25 25 25 26 26 26 25 24 24 24 25 26 26 26 26 25 25 25 26 26 27 28 28
25 23 22 21 20 20 20 21 21 22 22 23 23 23 24 24 24 24 24 24 25 25 25 26 26 26 26 25 24 24 24 25 26 27 26 26 26 25 25 26 26 27 28
21 20 19 18 19 19 20 20 21 21 21 21 22 22 23 23 23 23 23 24 24 25 26 26 27 27 26 25 24 24 23 24 25 26 27 26 26 25 25 25 25 26 26
17 15 15 16 17 19 19 20 20 20 20 21 21 21 22 22 23 23 23 24 24 26 26 27 27 28 27 26 25 24 24 24 24 25 26 26 25 25 25 25 25 25 25
13 13 15 16 17 18 19 20 20 20 20 21 21 22 22 22 22 22 23 24 24 25 26 27 27 27 28 27 26 25 24 23 24 25 25 25 25 25 25 25 25 25 25
12 14 16 17 18 19 19 19 20 20 20 21 21 22 22 22 22 22 22 23 23 23 24 26 26 26 27 28 27 26 25 24 24 24 25 25 25 25 25 25 25 26 25
14 15 17 17 18 19 19 19 20 20 21 21 21 21 21 21 21 21 21 21 22 21 22 24 25 26 27 28 28 28 27 26 25 25 25 25 25 25 25 25 25 25 25
15 16 17 18 19 20 20 20 20 20 21 21 21 21 21 22 21 22 21 21 21 21 22 23 24 25 27 28 27 29 29 29 28 26 26 25 25 24 24 24 24 25 25
15 16 17 18 19 20 20 20 19 20 20 21 21 21 21 22 22 22 21 21 21 21 21 21 22 23 25 27 28 28 30 31 31 29 28 27 26 25 25 24 25 25 25
15 16 17 18 19 20 20 20 20 20 20 21 21 21 20 21 22 22 22 22 21 22 22 21 21 22 24 26 28 29 30 32 32 31 31 30 28 27 27 26 26 26 26
16 17 18 19 20 20 20 20 20 20 20 21 21 21 21 21 21 22 22 22 21 21 21 21 22 22 23 24 25 27 29 32 33 33 32 32 31 31 31 30 29 29 28
17 18 19 20 20 20 20 20 20 20 21 21 21 21 21 21 21 22 22 22 22 22 22 22 22 21 21 22 22 23 26 28 31 32 33 34 34 34 34 33 32 32 31
18 19 20 21 21 22 22 22 22 22 22 22 21 21 22 22 21 21 21 21 22 22 22 22 23 23 22 22 23 23 23 25 27 30 32 34 35 36 37 36 36 35 35
19 20 21 22 22 23 23 23 22 22 22 22 22 22 22 21 21 21 21 21 21 22 22 23 23 22 22 22 22 23 24 24 25 28 30 31 33 35 36 37 38 38 39
18 20 21 22 22 22 22 22 22 22 22 22 22 21 21 21 20 20 20 20 21 21 21 22 22 22 22 22 22 22 23 24 24 26 28 29 31 34 35 36 37 38 39

GEFSMA_500_meanwind_048.txt.gz
Wind_Speed
15 15 14 13 12 12 11 10 10 10 9 9 9 9 10 9 9 10 11 11 12 13 13 14 13 13 13 13 12 12 11 11 12 13 13 14 15 15 15 16 17 16 15
17 17 16 16 15 14 13 13 12 12 12 11 11 11 11 11 10 10 11 12 12 13 14 15 15 15 15 15 15 14 14 13 13 14 14 14 14 15 16 17 18 18 17
20 19 19 18 18 17 16 15 15 15 14 13 13 12 12 12 12 11 12 12 13 14 14 16 16 17 17 17 17 17 17 17 16 15 15 15 15 15 16 17 19 20 20
22 21 21 20 20 19 19 18 18 17 16 15 15 14 14 14 14 13 13 13 14 14 15 16 17 17 18 19 19 19 19 19 19 18 17 17 16 16 17 18 18 20 21
23 22 22 22 22 22 21 20 20 19 18 17 16 16 15 16 15 15 15 14 14 15 16 16 17 18 19 19 20 20 21 21 21 21 20 20 19 19 18 18 19 20 21
24 23 24 24 24 24 24 23 22 21 20 19 18 17 17 17 17 17 17 16 16 16 17 17 17 18 19 19 20 21 21 21 22 22 22 22 22 21 21 20 20 21 22
26 26 26 27 26 26 26 24 23 23 23 21 20 19 19 19 19 19 19 19 18 18 18 18 18 19 19 20 21 21 22 22 22 23 23 23 23 23 22 22 21 21 22
29 28 28 29 28 28 28 26 26 25 25 24 23 22 21 21 21 21 21 21 20 20 20 20 20 20 19 21 21 22 22 23 23 23 24 24 24 24 24 23 23 23 23
31 31 30 30 31 31 29 27 26 25 25 24 24 23 23 23 23 22 22 22 22 22 22 21 21 22 21 21 22 23 23 23 23 24 24 24 24 24 24 24 24 24 23
35 34 32 31 31 32 29 28 27 26 26 25 25 24 24 24 23 23 23 23 23 23 23 24 24 24 23 22 23 24 23 23 23 24 24 24 25 25 25 25 25 25 24
37 35 35 34 32 31 29 28 29 28 27 26 26 25 24 23 23 24 23 24 24 23 23 24 24 24 23 23 24 24 24 24 23 24 24 24 25 25 25 24 25 25 25
39 38 35 34 32 29 28 26 27 28 27 26 26 24 23 23 23 23 24 24 23 23 23 23 24 24 23 22 23 24 24 24 24 24 24 24 25 25 25 24 24 25 25
40 38 35 34 31 29 28 27 26 25 25 24 24 23 23 23 23 23 23 22 22 22 22 22 23 23 23 23 24 25 25 25 25 24 24 25 25 25 25 25 25 25 25
37 35 34 32 28 27 27 27 27 26 24 23 23 22 22 23 23 23 23 22 22 22 22 22 23 23 23 23 23 24 25 25 25 25 25 25 25 26 26 26 26 25 25
32 32 29 27 26 26 26 26 25 24 23 23 22 22 22 22 23 23 23 22 22 22 23 23 23 23 24 24 23 24 25 25 25 25 25 24 24 25 26 26 26 26 26
29 26 24 25 25 25 23 22 22 21 21 22 22 22 22 22 23 23 23 23 23 22 23 23 24 23 23 24 24 25 25 26 26 26 25 25 24 24 25 25 26 25 25
21 19 20 20 21 21 20 19 19 20 21 22 23 22 22 23 23 23 24 24 24 24 23 24 24 24 23 23 23 24 25 25 26 26 26 25 25 25 25 25 25 25 25
16 16 16 17 17 17 17 18 19 20 21 22 22 23 23 24 24 24 24 24 24 24 24 24 24 24 23 23 23 22 23 25 26 26 26 25 24 24 25 25 25 25 25
10 10 11 11 12 14 16 18 19 21 21 22 22 22 23 23 23 24 24 24 24 24 24 23 23 23 23 22 22 23 23 24 25 26 26 26 25 24 24 24 25 25 25
6 7 9 11 13 15 18 19 20 20 21 21 21 22 22 22 22 22 23 23 23 23 23 22 23 23 23 22 23 23 22 22 24 25 26 26 26 25 25 25 25 25 25
8 10 12 13 15 16 17 19 19 19 20 20 21 21 21 22 22 22 22 22 22 22 23 22 22 23 23 22 22 22 22 22 23 24 26 27 26 26 26 26 26 26 25
11 12 14 15 16 16 17 18 18 19 19 20 20 21 21 21 21 21 21 21 21 22 22 22 22 22 22 22 21 21 21 20 20 22 24 25 26 27 27 28 28 28 27
13 14 15 16 16 17 18 18 19 18 19 19 20 20 20 20 20 21 21 21 21 21 21 21 21 21 21 21 20 20 20 19 19 20 21 22 24 26 27 28 29 29 29
13 14 15 15 16 17 18 18 19 20 20 20 20 19 19 19 20 20 20 20 21 20 20 20 20 20 20 20 20 19 19 19 18 19 20 21 23 25 27 29 29 30 31
13 13 14 15 16 16 17 18 18 19 20 20 19 19 19 19 20 20 19 19 18 18 18 19 19 19 19 19 19 19 18 18 18 18 18 18 19 21 23 26 27 29 31
13 13 13 13 14 15 15 16 16 17 17 18 17 18 18 19 19 19 18 17 17 17 17 17 17 17 17 18 18 17 17 17 17 18 18 18 19 20 21 21 23 26 28

GEFSMA_500_meanwind_054.txt.gz
Wind_Speed
16 17 17 17 17 17 16 15 14 13 12 10 10 9 10 9 9 8 8 8 8 8 8 8 8 9 8 8 8 9 9 9 9 10 11 12 13 14 14 15 15 16 16
18 18 19 19 19 19 18 18 16 15 14 13 12 12 11 11 11 10 9 9 9 9 9 9 10 10 10 10 11 11 11 11 11 11 11 12 13 14 15 15 16 17 17
18 19 20 20 20 20 20 19 19 18 17 16 15 14 13 13 13 12 11 11 11 10 10 10 11 11 12 12 13 13 13 13 14 14 14 14 14 14 15 16 17 17 18
19 19 20 20 21 21 21 21 21 20 20 19 18 17 16 15 15 14 13 13 12 12 12 11 12 12 13 13 14 15 15 15 16 16 16 16 16 16 16 16 18 18 19
21 21 21 21 21 21 21 21 22 22 22 21 21 20 18 16 16 16 15 14 14 13 13 13 13 13 14 14 15 16 16 17 18 18 18 18 18 18 18 18 18 19 20
24 23 22 22 22 22 22 22 22 23 23 23 23 22 20 19 18 17 17 17 16 15 14 15 15 15 15 16 16 17 18 19 19 20 20 20 20 20 20 21 20 21 21
26 25 24 24 23 22 23 24 24 24 24 25 25 24 23 22 20 19 18 19 18 17 16 17 17 18 18 18 18 19 19 20 21 21 22 22 22 22 22 22 22 22 22
27 25 26 25 24 23 24 25 25 25 26 26 26 26 25 24 24 22 20 20 20 20 19 19 19 20 20 20 20 21 21 22 22 22 23 23 23 23 23 23 23 24 24
29 28 27 27 26 26 25 24 25 26 27 27 28 28 28 26 26 25 24 22 21 22 22 22 22 22 23 22 22 22 23 23 23 24 24 24 24 25 25 25 24 25 25
32 30 28 28 28 28 26 26 26 26 28 28 29 29 30 29 27 26 26 25 24 23 23 23 23 24 24 24 24 23 24 24 25 25 25 25 25 25 26 26 26 25 25
33 32 31 29 29 29 27 27 27 26 27 28 29 30 31 30 29 28 27 27 26 25 24 23 23 24 25 25 25 24 25 25 26 26 26 26 26 26 26 26 26 26 26
34 33 32 31 30 29 28 28 29 29 28 28 28 29 31 30 29 29 28 28 26 25 25 23 23 23 24 25 25 24 24 25 26 26 26 27 27 27 27 27 27 26 26
33 32 32 31 31 30 30 29 28 29 29 28 28 29 30 30 30 29 28 28 26 25 24 24 23 23 23 24 24 24 25 25 25 26 26 27 27 28 28 27 27 27 27
32 32 32 31 30 30 30 30 29 28 28 28 28 28 28 28 28 28 28 27 26 25 24 24 23 22 23 23 23 24 25 25 25 26 27 27 27 28 28 28 28 27 27
31 30 31 30 30 30 29 29 28 28 28 28 27 28 27 27 27 27 27 26 24 23 24 24 23 22 22 22 23 24 25 25 25 26 27 27 28 28 28 29 28 28 28
28 27 27 28 27 27 27 27 27 27 26 26 26 26 26 26 27 26 25 24 22 23 24 24 23 23 22 23 23 24 25 25 25 26 27 27 28 28 28 29 29 28 28
23 24 24 24 23 22 22 22 23 23 23 24 25 25 24 23 23 22 22 22 23 23 24 24 23 23 23 23 24 24 24 25 26 25 26 27 27 28 28 29 29 29 28
18 19 18 18 18 18 18 18 17 18 19 20 21 21 21 21 21 21 21 22 23 23 24 24 24 24 23 23 23 23 24 25 25 25 25 25 26 27 28 29 28 28 29
10 11 13 14 15 16 16 16 16 17 17 18 19 20 20 20 21 20 21 21 22 23 23 23 23 23 23 23 24 24 24 24 24 24 24 24 25 25 26 28 28 28 28
7 9 11 12 13 14 14 14 14 15 16 17 18 18 18 19 19 20 20 21 21 21 22 22 22 22 23 23 24 24 24 24 25 24 24 24 24 25 26 27 28 29 28
6 8 9 10 11 11 12 13 14 15 16 16 17 18 18 19 19 19 20 21 21 21 21 22 22 22 23 23 24 24 24 24 24 25 24 24 24 25 26 27 27 28 29
7 8 9 10 12 13 14 15 15 16 17 17 18 19 19 19 19 20 20 21 21 21 21 21 22 22 23 23 23 24 24 24 24 24 23 23 23 24 24 25 26 28 28
7 9 10 11 12 13 15 16 17 17 17 17 18 19 20 20 20 20 21 21 21 22 22 22 22 22 22 23 23 23 23 23 23 23 23 23 23 23 23 23 24 25 26
8 9 10 11 12 14 15 16 17 17 17 18 18 19 19 19 19 20 20 20 20 20 21 21 21 21 21 21 21 21 21 21 21 21 21 21 21 22 22 22 23 23 24
10 10 11 11 12 13 14 15 16 16 17 17 18 18 18 18 18 18 19 19 19 19 19 19 19 19 19 19 19 19 19 19 19 19 20 20 20 20 20 20 20 22 23
11 11 11 12 12 12 12 13 14 15 15 16 16 17 18 18 17 17 17 17 17 17 18 18 18 18 18 17 17 17 17 17 18 18 18 18 19 19 19 20 20 21 22

GEFSMA_500_meanwind_060.txt.gz
Wind_Speed
16 16 16 16 16 16 15 14 13 13 12 12 11 10 9 8 7 7 7 7 7 7 7 7 8 8 8 8 8 8 8 8 8 8 9 10 10 10 12 13 14 14 15
18 18 18 18 17 17 17 17 16 15 14 14 13 12 11 10 9 9 9 9 9 9 8 8 9 9 9 9 9 9 9 9 9 10 10 10 11 11 12 13 15 16 16
20 19 19 19 19 19 18 18 18 17 16 16 16 15 14 13 12 11 11 11 10 10 10 9 10 10 10 10 10 10 10 11 11 11 11 12 12 13 13 14 15 16 17
22 22 21 20 21 20 20 20 19 19 19 18 17 17 16 14 14 14 13 13 13 12 12 11 11 11 11 11 11 11 12 12 13 13 13 13 14 15 15 15 16 17 18
25 23 23 23 23 22 21 21 21 21 20 20 19 18 18 17 16 16 16 15 15 14 14 13 13 12 12 12 12 12 12 13 14 14 14 15 15 16 17 17 17 18 19
27 26 26 26 25 25 23 22 23 23 22 21 20 20 20 20 19 18 18 18 17 16 16 15 14 14 14 13 13 13 13 13 14 15 16 16 17 17 18 18 19 20 20
29 28 27 27 27 26 25 24 24 24 23 23 23 22 22 21 21 20 20 20 20 18 18 17 16 15 15 15 15 14 15 15 15 16 17 17 18 18 19 20 20 21 22
32 31 30 29 29 28 27 26 25 25 24 25 25 24 23 23 23 23 22 22 22 21 20 19 18 17 16 16 16 16 16 16 17 17 18 18 19 20 21 21 22 22 23
33 32 32 31 28 27 27 27 27 26 26 26 26 25 25 25 24 24 24 24 24 23 22 21 20 20 18 18 18 17 17 17 18 19 19 20 20 21 22 23 23 24 24
35 33 31 31 31 30 29 28 30 29 28 28 27 27 27 26 26 25 26 26 26 26 25 24 23 22 20 19 19 19 19 19 19 20 21 21 21 22 23 23 24 25 25
35 35 34 33 31 31 30 30 29 29 30 29 28 28 28 28 28 28 28 29 29 28 27 26 25 24 23 22 21 21 20 20 20 21 21 22 22 22 23 24 25 26 26
34 34 33 33 32 30 30 30 29 29 29 30 29 29 29 29 29 30 29 30 30 30 29 28 27 26 25 24 23 22 21 21 21 21 21 22 22 23 23 24 25 26 27
32 32 32 31 31 30 29 29 28 29 28 28 28 29 29 30 30 30 30 31 31 31 31 30 29 28 26 25 24 24 22 22 22 22 22 22 22 22 23 24 25 26 27
30 30 30 29 30 29 29 29 29 29 29 29 28 28 29 29 30 31 30 30 32 32 32 31 30 29 28 26 26 25 24 23 23 22 22 22 22 23 24 24 25 27 28
27 27 27 27 27 27 28 28 28 28 29 30 30 30 29 29 29 29 29 29 30 30 31 30 30 29 29 27 26 25 24 23 23 22 22 22 23 23 24 26 26 27 28
23 23 24 25 25 26 27 27 27 27 28 28 29 29 29 29 29 28 27 28 28 28 28 28 27 28 27 26 24 24 24 23 23 23 24 24 24 24 25 25 26 26 27
18 20 21 22 23 24 24 25 26 26 26 26 26 27 27 28 28 28 27 27 27 27 26 26 26 26 25 25 24 24 24 24 24 24 24 25 25 25 25 26 26 27 27
14 15 17 19 20 21 21 22 23 23 24 24 23 23 24 25 26 26 26 26 26 25 25 24 23 24 24 24 24 24 24 24 24 25 25 26 26 25 25 26 26 27 27
8 10 11 13 14 16 17 18 18 19 20 21 21 21 21 21 22 22 22 23 23 23 22 22 22 23 23 23 23 24 24 25 25 26 26 26 26 26 26 26 26 26 27
5 6 7 9 10 11 12 13 14 16 17 18 18 17 18 18 19 20 20 19 20 20 20 20 21 21 21 22 23 23 24 24 25 25 26 26 26 26 26 26 26 26 26
4 4 5 6 6 8 9 10 11 12 13 14 14 15 15 16 17 17 17 18 18 19 19 20 20 20 21 21 22 22 22 23 24 24 25 26 27 27 27 27 26 27 26
8 6 6 6 6 7 8 8 9 10 11 11 12 12 13 13 14 15 15 16 17 18 18 18 19 19 19 20 21 21 22 22 23 24 24 25 25 26 26 26 26 26 26
11 9 8 7 7 6 7 7 8 9 10 11 11 11 12 12 13 14 15 15 16 16 17 17 18 18 19 19 20 20 21 22 22 23 23 23 23 24 25 25 24 24 25
12 11 10 10 9 7 7 7 7 8 8 9 11 11 12 12 13 14 14 15 15 15 15 16 17 17 17 18 18 19 19 19 20 20 21 21 21 21 22 22 22 23 23
13 13 12 11 10 8 7 7 6 7 7 8 9 10 11 12 12 13 13 14 14 13 14 15 15 16 16 16 17 17 17 17 17 17 17 18 18 18 19 19 19 20 20
15 14 13 12 11 9 7 6 6 6 6 7 7 7 9 10 10 11 11 11 12 12 12 13 14 14 14 14 14 14 15 15 15 15 15 15 16 16 16 16 17 17 18

GEFSMA_500_meanwind_066.txt.gz
Wind_Speed
18 18 17 16 15 15 15 14 14 13 13 12 11 11 10 10 9 9 9 9 8 8 7 7 6 6 6 6 6 6 6 6 6 7 7 8 8 9 9 10 10 12 13
22 21 20 19 18 17 17 16 16 16 15 15 14 14 13 13 12 11 11 10 10 10 9 9 8 8 8 8 8 8 8 8 8 8 8 8 9 10 10 10 11 12 13
26 25 23 22 21 20 18 18 18 18 17 17 16 16 15 15 15 14 13 13 12 12 11 11 11 10 10 9 9 9 9 9 9 9 9 9 10 10 11 12 12 13 13
30 29 26 24 23 23 21 20 20 20 19 19 18 18 17 17 17 17 16 15 15 14 14 13 13 12 12 11 11 11 11 11 11 10 11 11 11 11 12 13 14 14 14
31 31 30 28 26 24 24 23 23 22 21 20 20 20 20 19 19 19 19 18 17 16 16 16 16 15 14 14 13 13 13 13 12 12 12 13 13 13 13 14 15 15 16
32 31 30 29 27 26 25 25 25 24 23 23 22 21 21 21 21 21 21 20 19 19 18 18 18 17 17 16 16 15 15 14 14 14 14 14 14 14 15 15 16 16 16
35 34 31 31 31 28 27 26 26 25 24 24 23 23 23 23 23 23 23 22 22 21 21 20 20 20 19 19 18 18 17 17 16 16 16 16 16 16 16 17 17 17 18
38 37 34 33 32 30 29 28 27 26 26 25 25 24 24 24 24 24 24 24 24 24 23 23 23 22 21 21 21 20 19 19 19 19 18 18 18 18 18 18 18 19 19
40 40 37 35 34 32 31 30 29 28 27 27 27 25 25 24 25 25 26 26 26 26 25 25 25 25 24 23 23 22 22 21 21 21 20 20 20 20 20 20 20 20 21
40 39 39 39 38 35 33 32 31 30 30 29 28 27 28 27 26 26 27 27 27 27 27 27 27 26 26 26 25 25 24 24 23 23 22 22 21 21 21 21 21 22 22
39 38 38 37 37 37 36 35 33 32 31 30 29 28 29 30 29 29 29 30 30 29 29 29 28 28 28 28 27 26 26 25 25 24 24 23 23 23 22 23 23 23 23
37 38 38 38 37 37 37 35 34 32 33 32 32 31 30 30 30 32 32 31 31 31 31 31 30 31 30 30 29 28 27 27 26 25 25 24 24 24 24 24 24 24 24
35 36 37 37 36 36 35 34 34 34 34 34 33 33 32 32 31 31 32 31 31 31 32 31 31 31 31 32 31 30 29 28 27 27 26 25 25 25 24 24 25 25 25
32 33 34 35 36 37 35 34 34 33 32 32 33 32 31 32 33 33 32 33 33 33 32 32 33 33 32 33 33 32 31 29 28 28 27 26 26 26 25 25 25 25 25
26 28 31 32 34 34 33 33 32 32 31 31 31 31 31 32 34 34 33 33 33 33 33 33 33 32 33 34 34 33 33 32 31 29 28 28 28 27 26 25 25 25 26
21 23 26 28 29 30 30 30 31 31 31 31 31 31 31 31 32 32 32 32 32 32 32 32 32 32 32 33 34 34 34 34 33 31 30 29 28 27 26 26 25 25 25
17 19 21 23 24 25 26 28 28 28 29 29 30 30 30 30 32 32 32 31 32 32 32 32 32 32 32 32 32 33 33 32 30 29 28 27 27 26 25 25 25 25 26
12 14 16 18 20 21 22 24 25 26 28 29 29 30 30 29 30 30 30 30 31 31 31 31 31 30 30 30 31 31 30 29 28 27 26 26 26 26 25 25 25 26 26
7 8 10 12 15 17 19 20 21 23 24 25 26 27 28 29 29 29 30 31 31 30 30 31 30 30 30 30 30 29 28 27 26 25 25 25 25 25 25 25 25 26 26
3 4 5 8 11 13 16 17 18 20 21 22 23 24 25 26 26 27 28 28 29 29 29 29 29 29 29 29 29 28 26 26 25 24 24 24 23 24 24 25 26 26 26
2 3 5 6 8 10 12 13 15 16 17 19 20 20 22 22 23 24 25 25 25 25 25 25 25 25 24 24 24 23 22 22 23 23 23 23 23 24 24 24 25 26 26
5 4 4 4 4 6 8 10 11 12 13 14 15 16 16 18 19 20 20 20 21 21 21 21 22 21 20 20 19 19 20 20 21 21 22 22 23 23 24 24 25 26 26
9 8 6 5 4 4 4 6 7 9 10 12 12 12 13 13 14 15 16 17 17 16 16 17 17 17 17 18 18 19 19 20 21 21 21 21 22 22 23 23 23 24 24
11 10 8 7 5 3 3 3 4 5 7 8 9 9 10 11 11 11 12 13 14 14 14 15 15 16 16 17 18 18 19 19 19 19 20 20 20 21 21 21 21 22 23
13 11 10 9 8 5 3 2 2 4 5 6 7 8 8 9 10 10 11 12 13 13 12 12 13 13 14 15 15 16 16 16 17 17 17 18 18 18 19 19 20 20 20
14 13 12 11 10 8 5 3 1 1 3 4 5 6 7 7 8 8 9 10 11 12 12 12 13 13 13 13 14 14 14 14 14 14 15 15 15 16 17 17 18 18 17

GEFSMA_500_meanwind_072.txt.gz
Wind_Speed
25 24 24 23 22 21 20 19 18 17 16 15 14 13 12 11 10 10 10 9 8 8 7 6 6 5 5 4 4 4 4 3 3 3 3 3 4 4 5 6 7 8 9
27 26 26 26 25 23 22 21 20 20 19 18 16 15 14 13 13 12 12 11 10 10 9 9 8 8 7 6 6 6 6 6 5 5 5 6 6 6 6 7 8 9 9
31 28 28 28 28 26 25 24 22 21 21 20 19 18 17 16 15 14 14 13 12 12 11 10 10 10 9 9 8 8 7 8 8 7 7 8 8 8 8 8 9 10 10
33 31 30 30 30 29 28 27 26 24 23 22 21 20 19 18 18 17 16 15 15 14 13 13 12 12 11 11 11 10 10 10 10 10 10 10 10 10 10 10 10 11 11
34 32 32 31 30 30 29 29 29 27 25 24 23 22 21 20 20 19 18 18 17 17 16 15 15 14 14 13 13 13 12 12 12 12 12 12 12 12 12 12 12 12 13
36 35 32 31 32 32 31 30 30 29 27 27 26 25 23 22 22 21 21 20 20 19 18 18 17 17 17 16 16 15 15 15 14 14 14 14 14 14 14 14 15 15 15
38 37 35 34 33 32 32 32 31 29 28 28 26 25 25 25 25 23 23 23 22 21 21 20 19 19 19 18 18 18 17 17 17 16 16 16 16 16 16 16 16 16 17
38 38 38 36 36 34 33 34 33 31 30 29 27 27 25 24 25 25 25 24 24 23 22 22 21 21 21 21 20 20 20 20 19 19 19 19 19 19 19 19 19 19 19
37 37 38 38 36 34 34 33 33 33 32 32 29 28 27 26 26 25 25 25 25 24 24 23 23 22 22 22 22 22 22 22 22 22 21 21 21 22 22 21 21 21 21
36 37 36 37 36 35 34 34 33 33 33 32 32 31 30 29 27 26 26 26 26 26 26 25 25 24 23 23 23 24 24 24 24 24 24 24 24 24 24 23 24 24 24
35 35 35 36 36 35 35 35 35 34 33 33 32 32 32 31 30 29 28 28 27 27 27 27 27 26 25 25 25 25 26 25 26 26 26 26 26 26 26 26 25 26 26
31 32 33 35 35 35 35 36 36 35 33 33 33 33 33 32 31 30 29 29 29 29 29 28 29 28 28 26 26 27 27 27 28 28 28 28 28 28 28 28 28 27 28
27 29 30 32 33 32 34 36 36 35 35 34 34 34 33 33 32 32 31 31 31 31 31 30 30 29 29 28 27 28 29 29 29 30 30 30 30 29 29 29 29 30 29
23 25 27 29 30 31 33 34 35 35 34 34 35 35 34 34 33 32 32 32 32 33 33 33 31 31 30 29 28 29 30 30 30 31 31 31 31 31 30 30 31 31 30
19 21 23 24 26 29 30 32 33 34 34 34 34 33 34 35 35 34 34 33 32 32 32 31 32 32 30 30 29 30 30 31 31 32 32 32 33 33 32 32 32 32 32
14 16 17 19 22 24 26 27 29 30 31 32 32 31 32 33 33 34 34 33 33 33 33 32 31 32 32 31 30 30 31 31 31 31 32 33 34 34 34 34 33 33 33
10 12 14 15 17 19 21 23 25 25 25 27 28 29 29 30 31 32 33 32 31 31 31 31 30 30 30 30 29 28 29 30 30 30 31 32 33 34 34 33 33 33 33
6 7 8 10 12 14 16 18 20 22 22 23 24 25 26 27 28 28 29 29 29 29 28 29 29 28 27 26 26 26 26 28 29 29 29 30 32 33 32 32 32 31 31
5 5 6 7 8 11 12 14 16 18 19 19 21 23 24 25 26 26 27 28 28 28 28 28 27 27 27 27 26 26 25 26 27 27 28 29 30 31 31 31 30 29 29
7 6 5 6 7 8 9 11 13 14 15 17 19 20 21 22 23 24 25 26 27 27 28 28 28 27 26 25 25 25 25 25 26 26 26 27 27 27 27 27 27 26 26
9 8 7 6 5 6 8 9 11 12 14 16 17 19 20 20 21 21 22 23 24 25 26 26 26 26 25 24 24 23 23 23 24 24 23 23 23 24 24 23 23 24 25
12 10 9 7 6 6 7 7 9 11 12 13 14 15 16 17 18 19 20 22 22 22 22 23 23 23 23 22 23 23 23 21 21 20 20 21 21 21 21 21 22 22 22
14 12 11 10 8 6 5 5 6 7 8 10 11 12 13 15 15 16 17 18 19 20 20 21 20 20 19 20 21 20 20 19 19 18 18 18 18 18 17 17 18 19 20
16 14 13 11 10 9 6 6 4 3 4 5 7 8 10 11 12 13 13 14 15 16 17 17 18 17 17 17 16 15 15 15 15 15 14 14 14 15 16 16 17 17 18
17 17 15 14 12 11 9 8 6 4 3 3 4 5 5 6 7 8 10 11 13 15 15 14 14 13 13 12 12 12 12 12 12 12 12 12 13 14 15 15 16 16 16
19 18 17 16 14 13 12 10 8 6 4 2 2 2 3 2 3 4 6 7 9 10 11 11 11 11 11 10 10 10 10 10 10 11 11 12 13 13 13 14 14 15 15

GEFSMA_500_meanwind_078.txt.gz
Wind_Speed
30 30 31 29 28 27 26 25 23 22 21 19 18 16 15 14 13 12 12 11 10 9 8 7 6 5 5 4 4 4 4 4 4 4 4 5 6 7 7 7 9 11 12
29 31 30 30 30 30 29 28 26 25 23 22 20 18 17 16 16 15 14 13 12 11 10 9 8 7 7 6 5 5 5 5 5 5 5 5 6 7 8 8 9 10 11
31 30 31 30 31 31 30 29 29 27 26 24 23 21 19 19 19 17 16 15 14 13 12 11 11 10 9 8 7 7 6 6 6 6 6 6 6 7 7 8 9 10 11
34 32 31 30 31 32 32 31 30 29 28 27 25 23 22 21 21 20 18 17 16 15 14 14 13 12 11 10 9 9 8 8 7 7 7 7 7 7 7 8 9 10 11
34 33 32 32 32 33 34 32 31 29 29 28 27 26 24 23 23 22 21 20 19 17 16 16 15 14 13 13 12 11 10 10 9 9 9 9 9 9 9 9 9 10 11
35 34 33 34 34 34 34 33 31 31 31 30 29 28 26 25 25 23 23 22 21 20 18 17 17 17 16 15 14 14 13 12 11 11 11 10 10 10 10 10 11 12 12
35 35 35 34 35 35 35 34 32 31 31 30 30 30 28 27 27 26 25 24 23 22 21 20 20 19 18 18 17 16 16 15 14 13 13 13 12 12 12 12 12 13 14
35 36 36 36 36 36 35 35 34 32 31 31 31 31 31 29 29 28 27 26 25 24 23 22 22 21 20 19 19 18 18 17 17 16 15 15 15 15 15 15 15 15 15
33 34 36 36 37 37 37 36 34 33 32 32 31 32 33 31 31 30 29 28 27 26 25 24 24 23 23 21 21 20 20 19 19 18 18 18 18 17 17 17 17 17 17
32 33 34 36 37 37 38 39 36 35 35 33 33 33 33 32 31 30 30 29 28 27 26 26 26 25 25 24 23 23 22 22 21 21 20 20 20 20 20 20 20 19 19
30 32 33 34 35 36 37 37 36 36 35 34 34 33 32 33 32 31 30 30 29 28 27 27 27 26 26 26 26 25 25 24 23 23 22 22 22 22 22 22 22 22 22
26 28 30 32 33 36 37 38 38 37 36 35 35 35 34 33 32 32 32 31 30 30 30 29 28 27 27 27 27 27 27 27 26 25 25 25 25 25 24 24 24 24 24
22 24 26 29 31 33 35 36 37 37 37 36 35 35 35 35 34 34 34 34 33 32 31 31 30 30 30 29 29 29 29 28 28 27 27 27 27 26 26 26 26 26 25
17 20 22 25 27 30 32 34 36 37 36 35 35 34 34 35 35 35 34 35 36 35 33 33 32 32 31 30 30 29 29 29 29 29 28 28 28 28 28 27 28 27 27
12 15 18 20 23 25 28 30 33 34 34 33 34 34 34 33 35 35 35 35 35 35 35 34 34 34 33 32 31 31 30 30 30 30 30 29 29 29 29 29 29 28 28
8 11 14 17 19 22 25 27 29 31 31 31 32 31 32 32 34 35 35 35 35 35 34 35 35 33 33 33 33 32 30 29 29 30 30 30 29 29 29 30 29 29 29
6 7 9 11 14 17 19 21 24 27 28 29 29 29 30 32 32 34 35 35 35 35 34 34 34 34 33 32 32 31 30 29 30 29 29 29 29 29 29 29 30 30 30
5 5 6 7 9 11 14 17 19 22 25 26 27 27 27 29 30 31 32 32 33 33 32 32 31 31 31 30 30 30 28 27 27 28 28 28 28 29 29 30 30 30 30
7 6 4 5 7 9 11 13 16 18 21 23 25 25 26 26 27 28 29 30 29 29 29 30 29 28 29 29 29 29 29 28 26 26 27 27 27 27 27 29 29 29 28
8 7 5 4 4 6 9 11 12 15 17 19 20 20 21 22 24 24 24 25 26 27 27 28 28 27 27 27 27 27 27 27 27 27 26 27 27 27 27 27 28 28 28
11 8 6 4 2 3 4 6 9 11 12 15 17 18 18 19 21 22 23 24 24 25 26 26 26 26 25 26 26 25 26 26 26 26 25 25 25 25 25 25 26 26 26
13 11 9 7 5 4 2 3 5 6 9 11 14 15 15 16 17 19 21 22 22 23 25 25 25 25 25 25 25 25 25 25 24 23 23 23 23 23 23 24 24 24 24
16 14 11 9 8 7 5 3 1 3 6 8 10 11 12 13 14 15 16 18 20 21 22 23 23 24 23 24 24 24 24 23 23 23 23 23 22 22 21 21 22 22 21
18 16 14 12 10 9 8 6 3 1 2 4 6 7 8 9 11 12 14 15 16 18 19 20 21 21 22 22 22 22 22 22 22 21 21 21 21 21 21 20 19 19 18
19 18 16 15 13 12 10 8 6 4 2 0 3 5 6 7 8 9 11 13 14 14 16 17 18 18 19 19 19 19 19 20 20 20 19 19 19 18 17 16 15 15 15
19 18 18 17 15 13 11 10 8 6 5 3 2 2 3 4 5 7 8 10 11 12 13 15 16 16 16 17 17 17 17 17 16 16 15 14 14 14 13 13 13 13 14

GEFSMA_500_meanwind_084.txt.gz
Wind_Speed
32 32 31 29 28 27 27 26 25 23 22 21 19 17 16 15 13 12 11 10 9 8 7 7 6 5 4 4 2 2 3 2 2 2 3 4 5 6 6 7 8 8 9
34 33 32 31 30 29 28 28 27 26 25 23 22 21 19 18 16 15 13 12 11 10 9 9 8 7 6 5 5 4 4 3 3 3 3 3 4 4 5 7 8 8 9
36 36 34 32 31 31 30 29 28 28 27 26 25 23 22 21 20 18 17 15 14 13 12 11 10 9 8 7 7 6 5 5 5 5 4 4 4 5 5 6 7 8 9
38 37 36 35 34 32 31 31 30 30 30 29 28 27 25 24 23 21 19 18 17 16 15 13 13 12 11 10 9 8 7 7 6 6 6 6 6 7 7 7 7 8 9
39 39 38 36 35 35 34 32 32 31 31 31 30 29 27 26 25 24 22 21 19 18 17 16 15 14 13 12 11 11 10 9 9 8 8 7 7 8 8 8 8 8 9
40 39 39 38 37 35 35 35 34 33 31 31 31 30 29 28 27 26 25 23 21 21 20 18 17 16 16 15 14 13 12 12 11 10 10 9 9 9 9 9 9 9 9
38 39 39 39 39 38 36 35 35 35 33 33 33 32 31 31 29 27 26 25 25 23 22 21 20 19 18 17 17 16 15 14 14 13 12 11 11 11 10 10 10 10 11
35 37 38 39 40 39 39 38 36 35 34 33 33 33 32 31 30 29 29 28 27 25 24 23 22 22 21 20 19 18 18 17 16 16 15 14 13 13 13 12 12 12 13
31 33 35 37 39 40 40 40 39 37 35 34 34 33 32 31 32 32 31 31 29 28 27 26 26 24 23 23 22 21 20 20 19 18 17 17 16 16 15 15 15 15 15
27 30 31 34 37 39 39 39 39 38 37 36 35 34 34 33 33 33 33 32 31 30 29 28 27 26 25 24 24 23 23 22 21 20 19 19 18 18 18 17 17 17 17
23 26 28 31 33 36 37 39 39 38 37 36 36 36 36 36 35 34 33 33 33 32 32 31 30 28 26 26 25 25 24 24 23 23 22 21 20 20 20 19 19 19 19
19 22 26 28 30 32 35 37 37 38 39 38 37 37 38 36 35 35 35 34 34 33 34 33 32 30 29 28 27 27 26 26 25 25 24 23 23 22 22 22 22 21 21
16 19 22 25 28 30 32 34 35 37 38 38 38 39 39 38 36 36 36 35 34 34 34 34 34 32 31 30 29 29 29 28 28 27 26 25 25 24 24 24 24 23 23
11 14 17 19 23 26 29 32 33 35 35 36 37 38 38 38 37 36 36 35 35 36 35 35 35 34 32 32 31 30 30 30 30 29 28 27 27 26 26 26 26 26 26
10 11 13 15 18 22 25 27 29 32 34 34 35 36 36 37 37 37 36 36 36 36 36 35 36 36 35 33 33 32 31 30 31 30 29 29 28 28 28 28 27 27 27
8 9 9 12 15 18 22 24 26 28 30 31 32 34 36 35 36 37 36 36 36 36 36 36 36 37 37 35 34 33 32 31 31 31 31 30 29 29 29 29 28 28 29
7 7 8 9 11 14 16 19 21 23 25 27 29 31 34 34 34 35 35 35 35 35 35 35 36 36 37 37 36 35 34 34 33 31 30 31 31 31 30 30 29 29 30
9 8 7 8 9 10 12 14 17 20 22 24 26 27 30 31 30 30 32 33 33 33 33 34 34 34 35 35 35 35 35 34 33 33 32 32 32 31 31 30 30 29 29
11 10 8 7 7 8 9 11 13 16 18 20 22 24 27 28 28 28 28 29 31 31 32 33 34 34 34 34 34 33 33 33 32 32 32 32 31 30 29 28 28 27 28
14 12 10 8 6 6 6 7 9 11 13 16 18 20 23 24 24 25 26 26 27 29 30 32 34 34 33 33 34 33 32 32 32 32 32 32 31 29 27 27 27 27 27
15 14 12 10 8 6 5 5 7 9 11 13 15 17 19 20 20 22 23 25 25 26 28 29 29 31 31 31 32 32 32 31 30 30 30 30 29 28 28 27 27 27 27
18 16 15 13 10 7 5 4 4 6 7 10 12 14 16 17 18 19 21 22 22 23 24 26 27 28 29 29 29 30 29 29 30 30 29 27 26 27 26 26 26 26 25
20 18 17 15 12 9 6 5 3 2 4 6 8 11 13 15 16 17 18 19 20 21 22 23 25 26 26 27 27 26 26 27 27 26 26 25 24 24 24 24 24 24 24
23 22 21 20 16 13 10 7 6 4 1 3 5 8 10 13 14 14 15 16 17 18 19 20 21 22 23 24 23 24 24 24 23 22 22 22 23 23 23 22 22 22 23
23 22 21 20 18 15 12 9 7 6 4 2 2 4 6 8 10 11 13 15 16 16 17 18 18 19 20 21 21 22 22 22 21 20 20 20 20 21 21 20 20 21 21
22 22 21 20 18 16 14 12 10 8 6 4 2 1 2 4 6 7 9 10 12 13 14 15 15 16 17 19 19 19 19 19 19 19 19 19 19 19 19 18 18 17 18